www.pogodaiklimat.ru

Погода и климат >> Архив погоды >> Канада >> Oshawa


ПОГОДА в Oshawa

  • Прогноз погоды в Oshawa
  • Монитор погоды в Oshawa
  • Климат города

АРХИВ ПОГОДЫ в Oshawa

Время (UTC), дата Ветер
(напр.,м/с)
 
Видим.   Явления Облачность Т
(С)
Тd
(С)
f
(%)
Тe
(С)
Тes
(С)
Комфортность P
(гПа)
Po
(гПа)
Тmin
(С)
Tmax
(С)
R
(мм)
R24
(мм)
S
(см)
00 15.02 Ю 4 16 км ясно +2.4 -0.7 80 -2 -2 1015.2 997.9 -6.4 +3.8
03 15.02 Ю 3 8000 м дымка 3/0
[]
+0.6 -0.4 93 -4 -4 1013.5 996.3
06 15.02 ЮЗ 3 9000 м дымка 10/10 200 м
[]
+2.1 +1.2 94 -2 -2 1011.5 994.3 -6.4 +3.8 21
09 15.02 ЮВ 1 300 м туман н/о +2.1 +1.5 96 0 0 1008.6 991.5
12 15.02 Ю 1 300 м слаб. дождь н/о +2.7 +2.1 96 +1 +1 1006.1 989.0 -2.5 +3.8
15 15.02 ЮЗ 6 11 км 9/9 100 м
[]
+4.7 +4.1 96 -1 -0 1005.7 988.6
18 15.02 ЮЗ 4 16 км 3/0
[]
+5.9 +3.8 86 +2 +6 1005.2 988.2 -2.5 +6.0
21 15.02 Ю 4 16 км 5/0
[]
+5.9 +3.1 82 +2 +3 1004.6 987.6
00 16.02 З 1 14 км 9/0
[]
+2.8 +1.5 91 +1 +1 1003.4 986.4 +1.6 +7.0
03 16.02 СЗ 2 16 км 10/0
[]
+4.4 +1.3 80 +2 +2 1003.7 986.7
06 16.02 СЗ 4 16 км 10/0
[]
+3.1 +0.2 81 -1 -1 1005.0 988.0 +1.3 +7.0 161
09 16.02 СЗ 3 16 км 9/0
[]
+1.0 -1.2 85 -3 -3 1005.4 988.4
12 16.02 СЗ 4 16 км 10/10 600 м
[]
+1.1 -1.5 83 -4 -4 1006.3 989.2 +0.7 +7.0
15 16.02 СЗ 8 16 км 10/10 300 м
[]
-0.1 -3.6 77 -7 -7 1009.3 992.2
18 16.02 СЗ 11 16 км ясно -2.0 -8.3 62 -11 -11 1012.9 995.7 -2.2 +3.2
21 16.02 СЗ 10 16 км ясно -3.7 -12.2 52 -12 -12 1018.3 1000.9
00 17.02 З 6 16 км ясно -5.3 -12.9 55 -12 -12 1022.5 1005.0 -5.3 +1.3
03 17.02 ЮЗ 2 16 км ясно -7.8 -12.5 69 -12 -12 1024.5 1006.9
06 17.02 СЗ 2 16 км ясно -9.6 -13.2 75 -13 -13 1025.7 1008.0 -9.6 +3.2 192
09 17.02 СВ 2 16 км ясно -11.7 -13.8 84 -16 -16 1025.6 1007.8
12 17.02 С 1 16 км 3/3 600 м
[]
-11.8 -13.8 85 -14 -14 1026.0 1008.2 -13.0 +3.2
15 17.02 Ю 6 16 км 10/10 1000 м
[]
-1.6 -6.4 70 -8 -8 1024.3 1006.7
18 17.02 Ю 6 16 км 9/9 1000 м
[]
-1.0 -7.9 59 -7 -7 1021.0 1003.4 -13.0 -0.8
21 17.02 Ю 5 16 км 10/10 600 м
[]
-1.3 -7.7 62 -7 -7 1018.0 1000.4
00 18.02 ЮЗ 4 16 км н/о -1.2 -7.3 63 -7 -7 1017.1 999.5 -13.0 -0.8
03 18.02 ЮЗ 3 16 км 9/0
[]
-1.7 -6.3 71 -6 -6 1015.1 997.7
06 18.02 З 2 16 км 9/0 2000 м
[]
-2.3 -6.5 73 -6 -6 1015.1 997.7 -13.0 -0.8 16
09 18.02 ЮЗ 3 16 км ясно -2.8 -4.7 87 -8 -8 1018.0 1000.6
12 18.02 З 3 16 км 10/10 600 м
[]
-0.7 -5.0 73 -5 -5 1022.9 1005.4 -4.0 -0.8
15 18.02 ЮЗ 4 16 км 10/10 1000 м
[]
+1.1 -4.8 65 -3 -3 1025.9 1008.4
18 18.02 З 5 16 км 10/10 1000 м
[]
+2.1 -6.6 53 -3 -3 1026.4 1008.9 -4.0 +2.1
21 18.02 ЮЗ 6 16 км 5/5 1000 м
[]
+1.8 -5.3 59 -4 -4 1027.7 1010.2
00 19.02 Ю 5 16 км 3/0
[]
+0.8 -4.1 70 -5 -5 1028.4 1010.9 -4.0 +3.4
03 19.02 Ю 3 16 км 10/0
[]
+0.4 -3.5 75 -4 -4 1026.5 1009.0
06 19.02 ЮВ 5 16 км 9/0
[]
+0.2 -3.9 74 -5 -5 1024.0 1006.6 -4.0 +3.4 21
09 19.02 ЮВ 2 16 км 10/0
[]
+0.3 -2.9 79 -3 -3 1021.8 1004.4
12 19.02 В 2 16 км 5/0
[]
-1.0 -3.7 82 -5 -5 1021.0 1003.6 -2.1 +3.4
15 19.02 В 4 16 км 9/0
[]
+2.8 -2.1 70 -1 +1 1019.0 1001.7
18 19.02 В 3 14 км 10/10 300 м
[]
+3.1 +0.2 81 -0 -0 1018.5 1001.2 -2.3 +5.1
21 19.02 В 2 1200 м дымка {осадки} 10/10 50 м
[]
+2.6 +1.9 95 -1 -1 1017.5 1000.2
00 20.02 В 3 4800 м слаб. дождь {осадки} 10/10 50 м
[]
+3.2 +2.6 96 -1 -1 1017.1 999.8 -2.3 +5.1 0.8
03 20.02 СВ 2 4800 м слаб. дождь {осадки} 10/10 50 м
[]
+4.2 +3.6 96 +1 +1 1016.9 999.7
06 20.02 ЮВ 1 1600 м слаб. дождь {осадки} 10/10 200 м
[]
+4.5 +3.9 96 +3 +3 1017.3 1000.1 -2.3 +5.1 8
09 20.02 В 3 2400 м слаб. дождь {осадки} 10/10 50 м
[]
+4.9 +4.3 96 +1 +1 1016.7 999.5
12 20.02 В 2 700 м слаб. дождь {осадки} н/о +4.9 +4.3 96 +2 +2 1017.0 999.8 +3.0 +5.1 3
15 20.02 В 2 100 м слаб. дождь {осадки} н/о +6.1 +5.5 96 +3 +3 1017.4 1000.2

 

Местоположение метеостанции Oshawa (Канада): широта 43.92 долгота -78.88 высота над уровнем моря 139 м.

В архиве по умолчанию представлена погода в Oshawa за последнюю неделю. Архивные данные за месяц целиком и за предыдущие месяцы, начиная с января 2011 года, Вы можете получить, выбрав интересующий диапазон дат из раскрывающегося списка и нажав кнопку "Ввод!".

Внимание! Время в таблицах - всемирное. Для получения местного времени необходимо прибавить поправку, которая в Oshawa равна -5 ч.

Смотрите также архив погоды в соседних городах и на ближайших метеорологических станциях:

Погода в Toronto Buttonville (Канада) (39 км)
Погода в Buttonville (Канада) (39 км)
Погода в Toronto Aes Hq (Канада) (49 км)
Погода в Toronto City (Канада) (50 км)
Погода в Toronto Island Arpt (Канада) (53 км)
Погода в Peterborough Arpt (Канада) (54 км)
Погода в Cobourg (Канада) (58 км)
Погода в Toronto (Канада) (66 км)
Погода в Peterborough Trent (Канада) (67 км)
Погода в Lagoon City (Канада) (73 км)

Пояснения к столбцам:

Ветер - указаны скорость ветра в м/с - средняя за 10 мин, порывы в срок и между сроками (в фигурных скобках) и направление, откуда дует ветер: С - северный, СВ - северо-восточный, В - восточный, ЮВ - юго-восточный, Ю - южный, ЮЗ - юго-западный, З - западный, СЗ - северо-западный.
Видимость - горизонтальная дальность видимости в метрах или километрах. При видимости от 1 до 10 км при отсутствии осадков обычно наблюдается дымка, при ухудшении видимости до 1 км и менее - туман. В сухую погоду видимость может ухудшаться дымом, пылью или мглою.
Явления - указаны атмосферные явления, наблюдавшиеся в срок или в последний час перед сроком; фигурными скобками обозначены явления, наблюдавшиеся между сроками (за 1-3 часа до срока); квадратными скобками обозначены град или гололедные отложения с указанием их диаметра в мм.
Облачность - указаны через наклонную черту общая и нижняя облачность в баллах и высота нижней границы облаков в метрах; квадратными скобками обозначены формы облаков: Ci - перистые, Cs - перисто-слоистые, Cc - перисто-кучевые, Ac - высококучевые, As - высокослоистые, Sc - слоисто-кучевые, Ns - слоисто-дождевые, Cu - кучевые, Cb - кучево-дождевые. Подробнее классификацию облаков см. в Атласе облаков (PDF).
T - Температура воздуха - температура, измеренная на высоте 2 м над землей.
Td - Температура точки росы - температура, при понижении до которой содержащийся в воздухе водяной пар достигнет насыщения.
f - Относительная влажность воздуха - влажноcть воздуха, измеренная на высоте 2 м над землей.
Te - Эффективная температура - температура, которую ощущает одетый по сезону человек в тени. Характеристика душности погоды. При расчете учитывается влияние влажности воздуха и скорости ветра на теплоощущения человека.
Tes - Эффективная температура на солнце - температура, которую ощущает человек, с поправкой на солнечный нагрев. Характеристика знойности погоды. Зависит от высоты солнца над горизонтом, облачности и скорости ветра. Ночью, в пасмурную погоду, а также при ветре 12 м/с и более поправка равна нулю.
P - Атмосферное давление - приведенное к уровню моря атмосферное давление.
Po - Атмосферное давление - измеренное на уровне метеостанции атмосферное давление.
Tmin - Минимальная температура - минимум температуры воздуха на высоте 2 м над землей.
Tmax - Максимальная температура - максимум температуры воздуха на высоте 2 м над землей.
R - Количество осадков - Количество выпавших осадков за период времени, мм. При наведении курсора мыши на число - период времени, за который выпало указанное количество осадков.
R24 - Количество осадков - Количество выпавших осадков за 24 часа, мм.
S - Снежный покров - Высота снежного покрова, см. При наведении курсора мыши на число - состояние снежного покрова и степень покрытия местности в баллах.